Temperature
9 9 9 9 9 8 7 7 7 7 7 6 3 2 1 1 -1 -2 -3 -3 -3 -3 -4 -5 -5 -6 -7 -8 -9 -10 -10 -11 -11 -12 -12 -13 -13 -13 -13 -13 -13 -13 -13 -12
9 9 8 9 8 7 7 7 6 7 7 5 3 2 1 -0 -1 -2 -3 -3 -3 -3 -4 -5 -6 -7 -8 -8 -9 -10 -10 -11 -11 -12 -12 -13 -13 -13 -13 -13 -13 -13 -12 -12
8 7 9 10 10 7 7 6 6 7 6 2 1 0 -0 -0 -1 -2 -2 -2 -3 -4 -4 -5 -6 -7 -8 -8 -9 -9 -10 -11 -11 -12 -13 -13 -13 -13 -13 -13 -13 -13 -12 -12
6 8 12 12 9 8 8 7 6 6 5 3 2 1 1 -0 -1 -1 -2 -2 -3 -4 -5 -5 -6 -7 -8 -8 -8 -9 -10 -10 -11 -12 -12 -13 -13 -13 -13 -13 -13 -13 -13 -12
5 7 8 9 8 8 8 7 7 5 3 1 1 -0 -2 -2 -2 -1 -2 -3 -3 -4 -5 -5 -6 -7 -7 -8 -8 -9 -10 -10 -11 -11 -12 -13 -13 -13 -13 -13 -13 -13 -13 -13
4 8 9 12 8 8 8 7 7 6 2 -1 -2 -1 -1 -1 -2 -2 -2 -3 -4 -4 -5 -5 -6 -7 -7 -7 -8 -9 -9 -10 -11 -11 -12 -12 -13 -13 -13 -13 -13 -13 -13 -13
4 5 8 9 7 8 8 9 8 7 5 2 0 1 2 0 -1 -2 -3 -3 -4 -5 -5 -5 -6 -6 -7 -7 -8 -9 -9 -10 -10 -11 -11 -12 -12 -13 -13 -13 -13 -13 -13 -13
3 4 7 8 5 6 8 9 9 8 7 4 4 2 1 -0 -1 -2 -3 -4 -4 -5 -5 -5 -6 -6 -7 -7 -8 -8 -8 -9 -10 -11 -11 -12 -12 -12 -13 -13 -13 -13 -13 -13
6 10 11 10 11 12 10 9 8 8 6 5 4 2 1 -1 -1 -2 -3 -4 -4 -4 -5 -5 -6 -6 -7 -7 -8 -8 -8 -8 -9 -10 -11 -11 -12 -12 -13 -13 -13 -13 -13 -13
6 8 10 11 11 11 10 9 8 7 6 5 4 2 0 -1 -1 -2 -3 -4 -4 -4 -5 -5 -6 -6 -7 -7 -7 -8 -8 -8 -9 -9 -10 -11 -11 -12 -12 -13 -13 -13 -13 -13
6 7 10 12 13 12 9 8 7 6 5 4 3 2 0 -0 -1 -2 -3 -3 -4 -4 -5 -5 -6 -6 -7 -7 -7 -7 -8 -8 -8 -9 -10 -10 -11 -11 -12 -12 -13 -13 -13 -13
11 13 11 14 14 12 10 8 6 5 4 3 2 2 0 -1 -1 -2 -3 -3 -4 -4 -4 -5 -5 -6 -6 -7 -7 -7 -8 -8 -8 -9 -9 -10 -10 -10 -10 -11 -12 -12 -13 -13
16 15 14 13 12 11 10 8 6 5 5 3 2 1 0 -1 -1 -2 -3 -3 -4 -4 -4 -5 -5 -6 -6 -7 -7 -7 -8 -8 -8 -9 -9 -10 -10 -10 -10 -10 -10 -11 -12 -12
15 14 12 12 11 11 9 7 5 4 3 3 2 1 -0 -1 -1 -2 -2 -3 -3 -4 -4 -4 -5 -5 -6 -6 -7 -7 -7 -8 -8 -8 -9 -9 -9 -10 -10 -10 -10 -10 -11 -11
14 13 12 11 10 9 8 6 4 3 3 2 1 1 -0 -1 -1 -2 -2 -3 -3 -4 -4 -4 -5 -5 -5 -6 -6 -7 -7 -7 -8 -8 -8 -9 -9 -9 -9 -10 -10 -10 -10 -10
15 12 10 9 9 8 7 5 4 3 3 2 1 1 -0 -1 -2 -2 -2 -3 -3 -3 -4 -4 -4 -5 -5 -5 -6 -6 -6 -7 -7 -7 -8 -8 -8 -9 -9 -10 -10 -10 -10 -10
12 11 10 9 8 8 7 6 5 4 3 3 2 1 -1 -1 -2 -2 -2 -3 -3 -3 -3 -4 -4 -4 -5 -5 -5 -6 -6 -6 -7 -7 -7 -7 -7 -8 -9 -9 -10 -10 -10 -11
15 14 13 12 11 9 7 6 5 4 4 3 2 0 -1 -1 -1 -2 -2 -3 -3 -3 -3 -4 -4 -4 -4 -5 -5 -5 -6 -6 -6 -6 -6 -6 -7 -7 -8 -9 -10 -10 -11 -11
17 15 12 11 9 8 8 7 6 4 3 2 1 1 0 -1 -1 -2 -2 -2 -3 -3 -3 -3 -4 -4 -4 -5 -5 -5 -5 -5 -5 -5 -5 -6 -6 -7 -7 -8 -9 -10 -11 -12
17 15 13 10 9 8 7 6 6 4 3 2 1 0 -0 -1 -2 -2 -2 -2 -2 -3 -3 -3 -4 -4 -4 -4 -5 -5 -5 -5 -5 -5 -5 -5 -6 -6 -6 -7 -8 -9 -10 -11
17 16 14 11 9 8 7 6 5 4 3 2 1 1 0 -1 -2 -2 -2 -2 -2 -3 -3 -3 -4 -4 -4 -4 -5 -5 -5 -5 -5 -5 -5 -5 -6 -6 -6 -7 -7 -8 -9 -10
17 15 14 11 9 8 7 6 5 4 3 2 2 1 -0 -1 -2 -2 -2 -2 -3 -3 -3 -3 -4 -4 -4 -4 -4 -5 -5 -5 -5 -5 -5 -6 -6 -6 -6 -7 -7 -8 -8 -9
16 15 13 12 10 8 6 6 5 4 3 3 2 1 0 -1 -1 -1 -2 -2 -3 -3 -3 -3 -4 -4 -4 -4 -4 -5 -5 -5 -5 -5 -6 -6 -6 -6 -7 -7 -7 -7 -8 -9
15 14 13 11 8 7 6 5 5 4 3 2 2 1 1 -0 -1 -2 -2 -3 -3 -3 -3 -3 -4 -4 -4 -4 -5 -5 -5 -5 -5 -6 -6 -6 -6 -7 -7 -7 -7 -7 -8 -8
15 13 12 10 9 8 6 5 4 3 2 2 1 1 -0 -1 -1 -1 -2 -3 -3 -3 -3 -3 -4 -4 -4 -4 -5 -5 -5 -5 -6 -6 -6 -6 -7 -7 -7 -7 -8 -8 -8 -8
14 13 13 12 10 9 7 5 4 3 3 2 1 1 -0 -1 -2 -2 -3 -3 -3 -3 -3 -4 -4 -4 -4 -5 -5 -5 -5 -6 -6 -6 -6 -7 -7 -7 -7 -8 -8 -8 -8 -8
12 12 11 9 8 7 6 5 4 4 3 3 2 2 1 -1 -2 -2 -3 -3 -3 -3 -4 -4 -4 -4 -4 -5 -5 -5 -5 -6 -6 -6 -7 -7 -7 -7 -8 -8 -8 -8 -8 -8
Wind_Speed
8 7 5 7 9 8 10 9 10 11 8 8 11 12 11 9 8 6 5 2 2 4 5 7 8 8 8 9 10 10 10 11 12 12 12 12 12 12 12 13 15 15 17 19
6 4 5 7 10 9 9 7 10 12 14 3 7 8 9 9 8 6 5 2 2 4 6 7 7 8 9 9 10 9 10 11 12 12 12 12 12 12 13 14 14 15 17 18
5 8 8 9 7 8 8 9 10 10 8 8 7 10 11 10 8 7 5 3 2 3 5 6 7 7 8 9 9 9 10 10 11 11 12 12 13 13 13 13 13 14 16 17
3 8 5 7 2 6 8 10 11 9 6 11 7 6 5 7 8 8 6 3 1 2 4 5 6 6 7 8 8 9 9 10 11 11 11 12 11 11 10 9 11 11 12 16
1 3 10 10 5 6 6 10 8 9 7 8 10 6 2 5 7 7 6 4 2 1 2 4 6 7 7 8 8 9 10 10 11 10 11 11 11 11 8 8 8 10 11 13
4 2 7 8 3 3 3 8 7 10 11 11 11 5 6 9 8 7 6 4 3 0 2 4 5 6 7 8 8 9 10 10 10 10 10 10 11 9 7 7 9 11 12 11
5 7 10 7 6 6 2 8 5 10 12 15 12 6 8 12 8 7 6 5 4 2 2 3 5 6 7 7 9 9 10 9 10 10 10 9 9 8 8 9 9 9 10 10
5 4 10 7 9 10 11 3 7 9 9 9 7 10 13 11 9 8 7 5 4 2 2 3 4 5 6 7 8 9 9 9 9 9 9 10 9 8 8 8 7 7 7 8
11 12 6 11 11 8 6 8 8 9 8 11 11 10 11 10 9 8 7 5 3 2 2 3 4 4 5 7 8 8 8 8 8 9 8 8 7 7 7 7 5 6 7 7
8 14 10 12 10 6 8 8 8 8 11 12 11 11 11 11 9 8 7 5 4 3 2 3 5 5 5 7 7 7 8 8 8 7 8 7 7 7 6 7 6 6 7 7
9 11 9 9 11 10 8 8 9 8 9 12 14 11 11 11 10 8 7 5 4 3 1 2 4 5 6 7 7 7 7 8 8 8 8 7 8 6 8 5 9 8 5 6
12 11 9 8 7 12 12 11 13 11 10 9 12 13 12 10 9 8 7 6 5 4 2 1 3 4 6 6 6 6 7 7 6 6 7 8 8 8 13 14 16 16 15 13
10 5 7 3 6 12 12 14 13 13 14 11 10 12 13 9 9 8 7 6 6 4 2 1 2 4 6 6 6 6 6 7 6 7 7 8 8 9 10 13 16 16 16 16
8 5 4 7 8 10 10 12 10 9 9 12 11 11 11 8 8 9 8 7 6 4 3 2 2 4 6 6 7 7 7 8 8 6 6 7 7 8 8 10 11 10 13 15
12 12 8 6 9 10 10 11 11 10 10 10 9 11 12 11 10 9 7 6 5 5 4 3 3 4 5 6 6 7 6 6 6 5 6 6 7 7 8 9 10 10 10 11
7 7 8 9 12 13 12 12 14 15 13 12 12 12 11 10 9 8 7 7 6 5 5 4 4 4 5 5 6 5 5 11 9 6 6 7 6 7 8 9 10 10 10 11
10 10 11 10 14 14 17 16 17 17 16 16 15 12 11 9 8 8 8 7 6 6 5 5 5 4 5 5 6 5 5 7 11 7 6 6 6 6 7 8 9 10 10 14
17 14 15 13 17 18 17 14 14 16 15 15 13 13 13 14 13 11 9 7 5 5 6 6 6 5 5 6 4 3 4 4 5 5 6 6 6 6 7 8 9 10 10 11
15 13 14 14 16 18 18 17 16 15 13 15 17 16 14 12 10 8 8 8 7 6 6 6 6 4 4 5 4 1 3 4 5 5 5 8 8 6 7 8 9 10 10 11
13 12 13 13 13 14 16 15 15 14 14 16 15 13 12 11 10 9 9 8 7 6 6 6 5 5 5 6 3 1 3 4 4 5 5 6 6 7 7 9 10 10 10 11
14 13 14 15 14 13 15 17 17 17 16 17 17 17 15 12 11 10 8 7 7 8 7 8 5 4 4 4 1 1 1 3 4 4 5 6 7 8 8 9 10 11 11 12
14 15 16 15 15 14 14 15 16 17 17 16 15 13 13 12 12 10 8 6 6 11 8 5 4 6 7 4 3 1 1 2 3 3 4 5 6 7 8 9 9 10 11 11
13 14 16 16 16 14 13 14 15 16 18 18 18 18 16 14 12 11 9 8 7 11 8 5 8 10 7 4 3 2 1 1 3 3 4 4 5 6 7 8 9 10 10 11
14 15 14 13 14 15 16 15 14 13 13 14 14 15 14 12 10 9 4 11 17 14 8 9 12 11 7 4 4 3 2 2 3 3 3 4 4 5 6 7 8 9 10 12
14 15 16 17 17 14 14 14 13 11 11 10 10 11 11 10 9 10 8 9 15 14 7 10 13 11 6 4 5 4 4 4 3 2 2 3 4 5 6 6 7 9 10 10
14 15 14 14 12 11 12 13 13 12 12 12 11 11 10 8 7 8 9 10 11 13 9 6 5 7 5 5 5 5 4 3 2 2 3 3 4 5 5 6 8 8 9 11
10 10 10 9 9 11 12 13 14 14 14 14 13 12 12 11 10 10 10 10 9 8 7 7 6 5 5 5 5 5 5 5 4 4 4 4 4 4 6 8 9 11 12 14
Wind_Direction
262 274 270 251 237 204 198 205 220 250 251 244 204 182 172 167 165 166 172 166 20 359 348 347 346 341 337 332 334 336 334 336 336 333 330 330 330 331 333 338 340 335 335 335
293 317 309 270 252 223 223 222 238 262 271 242 129 129 150 166 170 175 180 151 31 4 354 347 340 335 333 333 332 332 333 334 334 337 336 335 335 340 342 343 340 340 341 341
291 317 338 297 249 195 215 217 209 233 238 147 154 171 175 176 177 179 168 129 44 357 338 329 327 328 332 330 327 332 333 334 337 337 337 337 342 345 343 341 341 342 343 347
311 352 294 252 185 195 225 247 222 233 196 174 159 141 141 159 171 173 158 139 71 331 323 320 325 331 330 328 330 332 335 336 337 338 337 337 341 343 338 336 340 341 342 349
100 299 280 292 236 205 222 276 224 205 164 129 116 100 177 189 171 167 156 151 168 242 288 321 334 335 336 334 334 337 341 340 338 339 339 341 344 341 336 334 338 341 347 349
143 228 257 257 163 130 77 282 230 171 160 154 149 177 220 177 161 153 146 141 149 184 340 349 340 342 346 339 339 343 342 338 337 341 340 341 342 338 336 336 345 348 349 349
189 233 265 251 153 133 192 262 178 164 164 167 185 191 150 147 150 151 146 144 140 106 30 349 339 352 351 340 338 334 333 335 340 341 338 343 340 335 337 343 342 340 342 344
168 215 260 191 146 188 218 148 154 158 158 155 142 124 137 146 150 151 149 150 148 110 35 354 353 1 349 337 324 325 330 336 337 337 342 351 334 333 334 337 333 333 338 343
195 223 246 177 200 210 161 169 172 160 152 139 140 151 155 155 157 157 160 165 160 124 54 4 355 359 342 321 320 326 332 333 330 333 333 336 329 330 335 338 332 341 343 344
245 262 251 223 234 212 187 181 167 153 150 152 153 158 159 160 162 162 164 168 162 126 67 3 342 343 325 315 321 326 329 327 329 332 332 329 337 343 337 335 338 344 341 335
253 270 287 256 223 200 174 151 141 139 151 156 151 157 163 164 167 168 168 168 159 141 112 331 328 331 324 319 323 326 324 324 328 335 327 327 335 333 339 324 346 348 326 324
236 229 209 240 213 174 164 166 160 148 146 152 158 161 161 165 166 165 167 167 163 158 169 296 320 321 317 314 317 322 329 326 319 323 330 333 327 329 342 349 349 350 346 343
227 211 197 246 177 173 172 167 163 159 157 159 158 159 160 160 166 164 167 173 176 178 193 251 303 311 310 309 313 317 318 316 313 329 328 331 332 333 333 337 343 346 345 341
217 163 209 195 185 172 158 151 145 135 143 152 153 157 157 152 159 170 179 183 182 185 199 209 278 297 300 304 311 317 317 320 327 313 317 321 324 326 329 331 333 332 335 335
217 202 204 164 142 140 139 139 143 148 147 151 154 160 163 165 175 182 181 181 182 188 191 208 263 284 292 302 312 315 319 314 310 310 316 319 323 329 333 333 333 330 329 331
180 162 150 153 162 160 157 162 168 170 167 166 169 174 174 171 169 170 177 182 183 195 202 215 248 269 289 299 311 311 312 330 337 329 324 325 326 333 339 339 338 338 339 334
161 183 182 183 182 182 184 183 180 175 172 176 179 171 161 158 166 184 194 194 195 204 209 216 234 263 287 296 301 301 308 322 339 334 320 318 323 332 335 338 339 339 338 341
206 197 184 184 187 188 190 184 175 173 177 178 164 163 171 180 189 193 187 179 188 216 229 219 224 251 272 286 286 293 309 311 314 315 318 324 339 334 332 336 336 334 335 341
206 194 186 182 180 182 183 182 180 175 167 162 168 179 186 189 186 175 167 175 192 213 220 203 224 238 269 285 313 280 317 318 321 324 321 338 344 331 334 337 337 333 335 343
197 185 178 175 171 173 178 176 169 167 168 168 171 175 183 188 179 172 175 196 208 201 185 195 214 229 250 275 298 231 318 323 327 330 333 334 333 335 338 341 340 337 341 344
187 178 174 173 173 173 172 168 168 171 171 172 177 183 187 184 178 174 180 209 223 201 199 211 200 207 240 248 203 166 325 327 330 328 333 335 334 337 340 342 342 341 343 343
180 178 176 171 170 172 170 170 171 169 170 177 181 177 175 178 181 188 204 205 188 183 184 194 192 218 231 199 156 168 292 322 321 319 325 330 333 335 337 338 338 338 339 339
175 175 173 172 171 167 162 169 172 172 176 180 181 183 185 185 184 188 205 206 189 193 184 187 203 215 213 162 166 177 211 289 307 312 320 322 323 325 327 330 331 332 332 335
170 169 167 159 152 158 171 178 175 178 180 182 185 183 180 179 190 201 195 181 186 193 191 197 204 208 195 164 177 188 211 248 275 291 308 313 313 317 320 323 325 327 329 331
165 160 158 162 171 180 176 167 165 166 171 180 182 182 185 185 185 187 181 177 183 184 182 199 202 201 178 176 188 198 213 235 244 251 291 305 311 317 318 321 324 324 324 327
169 174 177 180 176 168 166 168 175 179 181 184 188 188 188 183 170 167 175 181 188 187 180 187 196 192 173 185 196 202 211 233 268 276 276 288 300 308 312 317 317 317 320 323
154 158 159 162 168 169 171 176 180 183 185 186 185 185 184 183 181 179 179 181 187 186 180 183 184 182 184 190 197 204 210 218 227 235 254 273 288 295 303 309 311 312 315 319
Height
1601 1597 1597 1595 1594 1595 1598 1598 1599 1586 1581 1576 1577 1580 1584 1587 1589 1589 1589 1587 1585 1582 1579 1576 1572 1568 1563 1557 1550 1543 1536 1530 1523 1518 1511 1505 1498 1491 1484 1478 1471 1463 1454 1444
1600 1595 1596 1592 1588 1590 1591 1591 1589 1582 1577 1571 1573 1578 1582 1584 1586 1587 1586 1584 1582 1580 1578 1575 1571 1567 1562 1556 1549 1543 1536 1530 1524 1517 1511 1505 1498 1492 1485 1478 1471 1464 1456 1447
1606 1601 1592 1587 1578 1583 1583 1581 1579 1577 1571 1573 1574 1576 1578 1581 1583 1583 1582 1581 1580 1579 1576 1573 1570 1566 1561 1555 1549 1542 1536 1530 1523 1517 1511 1505 1499 1492 1486 1479 1473 1466 1459 1452
1613 1604 1593 1577 1573 1574 1574 1570 1568 1566 1565 1568 1570 1574 1576 1579 1580 1580 1580 1579 1579 1577 1575 1572 1569 1565 1560 1555 1548 1542 1535 1529 1523 1517 1511 1505 1499 1493 1487 1481 1475 1469 1463 1457
1616 1611 1598 1577 1571 1571 1572 1567 1559 1560 1563 1567 1569 1573 1575 1576 1577 1577 1578 1578 1577 1575 1573 1571 1568 1564 1559 1554 1548 1541 1535 1529 1523 1517 1511 1505 1500 1494 1489 1483 1477 1471 1466 1461
1619 1609 1596 1569 1568 1568 1571 1569 1554 1555 1559 1563 1568 1574 1571 1572 1574 1575 1576 1576 1575 1573 1571 1569 1567 1563 1558 1553 1547 1541 1535 1530 1524 1518 1512 1506 1501 1496 1490 1485 1479 1474 1470 1465
1617 1613 1587 1565 1566 1570 1574 1559 1550 1550 1553 1557 1561 1563 1565 1568 1570 1572 1573 1573 1572 1571 1570 1568 1565 1561 1557 1552 1547 1542 1537 1531 1525 1519 1513 1508 1502 1497 1492 1487 1482 1477 1472 1468
1614 1612 1585 1561 1563 1564 1555 1547 1548 1549 1551 1555 1557 1559 1562 1565 1568 1570 1571 1571 1570 1570 1568 1566 1563 1560 1557 1552 1547 1543 1538 1532 1526 1521 1515 1509 1503 1498 1492 1487 1482 1478 1474 1469
1584 1569 1551 1549 1547 1545 1545 1545 1545 1547 1549 1552 1555 1557 1559 1562 1565 1567 1568 1569 1568 1568 1566 1564 1562 1559 1555 1552 1547 1543 1538 1533 1527 1522 1516 1510 1503 1498 1492 1488 1483 1479 1475 1470
1569 1552 1544 1544 1542 1541 1541 1541 1543 1545 1547 1550 1552 1554 1557 1559 1562 1564 1565 1566 1566 1566 1564 1562 1560 1557 1555 1551 1548 1543 1539 1533 1528 1522 1517 1511 1505 1499 1493 1488 1484 1480 1475 1471
1559 1545 1539 1535 1534 1535 1536 1538 1540 1542 1545 1547 1549 1551 1553 1556 1559 1561 1562 1563 1563 1563 1562 1561 1559 1556 1553 1550 1547 1543 1538 1534 1528 1523 1518 1512 1507 1501 1495 1490 1486 1481 1476 1472
1543 1532 1533 1530 1530 1530 1530 1532 1535 1538 1541 1544 1546 1548 1551 1553 1556 1558 1559 1560 1561 1561 1560 1559 1557 1555 1552 1549 1546 1542 1538 1533 1528 1523 1518 1513 1508 1503 1498 1492 1486 1481 1476 1472
1527 1526 1525 1524 1524 1525 1526 1528 1531 1535 1538 1540 1543 1546 1548 1551 1553 1555 1556 1557 1558 1558 1558 1556 1555 1553 1551 1548 1545 1541 1537 1533 1528 1523 1518 1513 1508 1503 1497 1493 1488 1482 1476 1471
1521 1521 1519 1517 1519 1520 1521 1525 1528 1532 1535 1538 1540 1542 1545 1548 1550 1552 1553 1554 1555 1555 1555 1554 1553 1551 1549 1547 1544 1540 1537 1533 1528 1523 1519 1514 1509 1504 1498 1492 1487 1482 1477 1471
1512 1513 1512 1512 1513 1514 1517 1520 1523 1526 1530 1533 1536 1539 1541 1544 1547 1549 1550 1551 1552 1553 1552 1552 1551 1549 1547 1545 1542 1539 1535 1531 1527 1523 1518 1513 1509 1504 1498 1493 1488 1482 1477 1472
1504 1504 1504 1505 1506 1508 1510 1513 1516 1520 1524 1528 1531 1534 1538 1541 1544 1546 1547 1548 1549 1550 1550 1549 1548 1547 1545 1543 1540 1537 1534 1530 1526 1522 1517 1513 1508 1502 1497 1492 1487 1482 1477 1472
1496 1494 1495 1497 1498 1499 1502 1505 1509 1513 1519 1523 1527 1531 1534 1537 1539 1541 1544 1545 1546 1547 1547 1546 1546 1544 1543 1541 1538 1536 1533 1529 1526 1521 1517 1512 1507 1502 1497 1492 1487 1482 1477 1472
1483 1485 1488 1489 1491 1493 1496 1500 1504 1509 1514 1519 1523 1526 1529 1531 1534 1537 1540 1541 1543 1543 1543 1543 1543 1542 1540 1539 1537 1534 1531 1528 1525 1521 1516 1512 1507 1502 1497 1492 1487 1481 1477 1472
1474 1476 1479 1482 1485 1488 1490 1493 1498 1504 1509 1514 1517 1520 1524 1528 1531 1534 1536 1537 1539 1540 1540 1540 1540 1539 1538 1536 1535 1533 1530 1528 1525 1521 1517 1512 1508 1503 1497 1491 1486 1481 1476 1471
1467 1469 1472 1475 1479 1481 1484 1488 1493 1498 1503 1508 1512 1516 1519 1523 1526 1529 1531 1533 1535 1536 1537 1537 1536 1536 1535 1534 1533 1531 1529 1527 1524 1521 1517 1513 1508 1503 1497 1491 1486 1480 1475 1470
1459 1462 1464 1467 1471 1474 1478 1482 1486 1491 1496 1501 1505 1509 1513 1518 1521 1523 1526 1529 1531 1532 1533 1533 1533 1533 1532 1532 1531 1529 1527 1525 1523 1520 1517 1513 1508 1503 1498 1492 1486 1481 1475 1470
1451 1454 1457 1460 1464 1467 1471 1475 1480 1486 1491 1495 1499 1504 1508 1512 1515 1518 1521 1524 1526 1528 1529 1529 1529 1529 1529 1529 1528 1527 1525 1524 1522 1519 1516 1512 1508 1504 1499 1493 1487 1481 1476 1470
1444 1447 1450 1453 1457 1461 1465 1469 1474 1479 1484 1488 1492 1497 1501 1504 1508 1511 1515 1519 1521 1523 1524 1525 1525 1526 1526 1526 1526 1525 1523 1522 1520 1518 1515 1512 1508 1504 1499 1494 1488 1482 1476 1470
1436 1439 1443 1447 1451 1455 1458 1462 1468 1473 1479 1483 1488 1492 1496 1499 1503 1507 1511 1514 1516 1518 1520 1521 1521 1522 1523 1523 1523 1522 1521 1520 1518 1516 1514 1511 1508 1503 1499 1494 1489 1483 1477 1471
1428 1432 1435 1439 1442 1445 1451 1456 1462 1467 1472 1476 1481 1485 1489 1493 1497 1501 1505 1508 1510 1513 1515 1516 1517 1518 1519 1519 1519 1519 1519 1518 1516 1514 1512 1509 1506 1502 1498 1493 1488 1483 1477 1471
1420 1423 1427 1431 1435 1439 1443 1448 1453 1458 1463 1468 1472 1477 1481 1486 1491 1495 1499 1502 1505 1507 1509 1511 1512 1513 1514 1515 1516 1516 1515 1514 1513 1512 1510 1507 1504 1501 1497 1492 1488 1482 1477 1471
1413 1417 1420 1424 1428 1432 1437 1441 1445 1450 1455 1460 1464 1469 1474 1478 1483 1487 1491 1495 1498 1501 1503 1505 1507 1508 1509 1510 1511 1511 1511 1511 1510 1509 1507 1505 1502 1499 1495 1491 1486 1481 1476 1470